TimeEST,TemperatureF,Dew PointF,Humidity,Sea Level PressureIn,VisibilityMPH,Wind Direction,Wind SpeedMPH,Gust SpeedMPH,PrecipitationIn,Events,Conditions,WindDirDegrees,DateUTC
12:53 AM,-7.1,-13.0,75,30.46,10.0,SSW,4.6,-,N/A,,Clear,200,2014-03-04 05:53:00
1:53 AM,-6.0,-11.9,75,30.45,10.0,South,4.6,-,N/A,,Clear,180,2014-03-04 06:53:00
2:53 AM,-6.0,-11.9,75,30.45,10.0,SW,5.8,-,N/A,,Clear,220,2014-03-04 07:53:00
3:53 AM,-2.0,-11.0,66,30.44,10.0,SW,5.8,-,N/A,,Partly Cloudy,220,2014-03-04 08:53:00
4:53 AM,1.9,-8.0,63,30.43,10.0,SW,8.1,-,N/A,,Mostly Cloudy,230,2014-03-04 09:53:00
5:53 AM,1.9,-7.1,66,30.41,10.0,Calm,Calm,-,N/A,,Overcast,0,2014-03-04 10:53:00
6:53 AM,1.9,-7.1,66,30.42,10.0,Calm,Calm,-,N/A,,Mostly Cloudy,0,2014-03-04 11:53:00
7:53 AM,3.0,-5.1,69,30.42,10.0,SW,3.5,-,N/A,,Mostly Cloudy,220,2014-03-04 12:53:00
8:53 AM,7.0,-5.1,58,30.42,10.0,SW,4.6,-,N/A,,Mostly Cloudy,230,2014-03-04 13:53:00
9:53 AM,10.0,-2.9,56,30.42,10.0,WNW,5.8,-,N/A,,Overcast,300,2014-03-04 14:53:00
10:53 AM,9.0,-2.9,59,30.37,10.0,Calm,Calm,-,N/A,,Overcast,0,2014-03-04 15:53:00
11:53 AM,9.0,-2.0,61,30.38,10.0,NW,6.9,-,N/A,,Mostly Cloudy,310,2014-03-04 16:53:00
12:53 PM,10.9,-0.9,59,30.36,10.0,NW,4.6,-,N/A,,Overcast,320,2014-03-04 17:53:00
1:53 PM,12.9,1.0,59,30.32,10.0,Calm,Calm,-,N/A,,Overcast,0,2014-03-04 18:53:00
2:53 PM,12.9,1.9,62,30.32,10.0,North,6.9,-,N/A,,Overcast,350,2014-03-04 19:53:00
3:53 PM,12.0,1.0,61,30.30,6.0,NNW,4.6,-,0.00,Snow,Light Snow,340,2014-03-04 20:53:00
4:53 PM,12.9,3.9,67,30.28,8.0,NE,5.8,-,0.00,,Overcast,50,2014-03-04 21:53:00
5:53 PM,12.0,5.0,73,30.27,10.0,NE,5.8,-,N/A,,Mostly Cloudy,40,2014-03-04 22:53:00
6:53 PM,12.9,6.1,74,30.28,10.0,NE,3.5,-,N/A,,Overcast,40,2014-03-04 23:53:00
7:53 PM,12.9,6.1,74,30.30,10.0,NNE,4.6,-,N/A,,Overcast,20,2014-03-05 00:53:00
8:53 PM,12.9,6.1,74,30.27,10.0,East,5.8,-,N/A,,Overcast,100,2014-03-05 01:53:00
9:53 PM,14.0,6.1,71,30.27,10.0,East,4.6,-,N/A,,Overcast,100,2014-03-05 02:53:00
10:53 PM,14.0,7.0,74,30.27,10.0,East,3.5,-,N/A,,Overcast,90,2014-03-05 03:53:00
11:53 PM,15.1,8.1,74,30.28,10.0,Calm,Calm,-,N/A,,Overcast,0,2014-03-05 04:53:00